Location: Norderney
(53.7000°N, 7.1500°E)
Time: 09:28:13
(UTC+02:00)

X-37B - Pass Details

Date: 24 June 2021
Orbit: 383 x 392 km, 45.0° (Epoch: 01 July)

Event Time Altitude Azimuth Distance (km) Brightness Sun altitude
Rises 00:06:38 0° 232° (SW) 2,252 4.3 -10.6°
Reaches altitude 10° 00:09:15 10° 208° (SSW) 1,401 3.0 -10.7°
Enters shadow 00:10:00 13° 196° (SSW) 1,238 2.6 -10.8°
